This is the latest recevied weather packets stored in our database for station/object KG7FOQ-13. If no packets are shown the sender has not sent any weather packets the latest 10 day(s).
| Time | Temp. | Humidity | Pressure | Rain* | Wind** | Luminosity | Snow |
|---|---|---|---|---|---|---|---|
| 1777826510 | 17.78° C | 33% | 1014.8 hPa | 0 mm | - | - | - |
| 1777826210 | 17.22° C | 34% | 1014.8 hPa | 0 mm | - | - | - |
| 1777825909 | 17.22° C | 32% | 1014.8 hPa | 0 mm | - | - | - |
| 1777825608 | 17.78° C | 33% | 1014.8 hPa | 0 mm | - | - | - |
| 1777825348 | 17.78° C | 34% | 1014.8 hPa | 0 mm | - | - | - |
| 1777825308 | 17.78° C | 34% | 1014.8 hPa | 0 mm | - | - | - |
| 1777825007 | 17.22° C | 33% | 1014.8 hPa | 0 mm | - | - | - |
| 1777824707 | 17.22° C | 33% | 1014.9 hPa | 0 mm | - | - | - |
| 1777824441 | 16.67° C | 36% | 1015 hPa | 0 mm | - | - | - |
| 1777824406 | 16.67° C | 36% | 1015 hPa | 0 mm | - | - | - |
| 1777824106 | 16.67° C | 35% | 1015 hPa | 0 mm | - | - | - |
| 1777823806 | 16.11° C | 34% | 1015.1 hPa | 0 mm | - | - | - |
| 1777823204 | 16.11° C | 34% | 1015.2 hPa | 0 mm | - | - | - |
| 1777822904 | 16.11° C | 32% | 1015.2 hPa | 0 mm | - | - | - |
| 1777822603 | 16.11° C | 32% | 1015.1 hPa | 0 mm | - | - | - |
| 1777822303 | 16.11° C | 32% | 1015.2 hPa | 0 mm | - | - | - |
| 1777822002 | 15.56° C | 32% | 1015.2 hPa | 0 mm | - | - | - |
| 1777821702 | 15.56° C | 32% | 1015.2 hPa | 0 mm | - | - | - |
| 1777821401 | 15.56° C | 33% | 1015.2 hPa | 0 mm | - | - | - |
| 1777821101 | 15° C | 36% | 1015.2 hPa | 0 mm | - | - | - |
| 1777820800 | 14.44° C | 39% | 1015.2 hPa | 0 mm | - | - | - |
| 1777820498 | 14.44° C | 39% | 1015.3 hPa | 0 mm | - | - | - |
| 1777820197 | 13.89° C | 41% | 1015.3 hPa | 0 mm | - | - | - |
| 1777819897 | 13.33° C | 42% | 1015.3 hPa | 0 mm | - | - | - |
| 1777819596 | 12.78° C | 44% | 1015.5 hPa | 0 mm | - | - | - |
* Rain latest hour (hover to see other rain measurements)
** Current wind speed in m/s (hover to see current wind gust speed)